| time (UTC) | temp F | wind direction | speed MPH | gust MPH | rain 1hr in | rain 24hr in | rain mn in | humidity % | barometer mb |
| 20260906180703 | 82 | 120 | 0.0 | 0.0 | 0.00 | 0.00 | 0.00 | 53 | 1019.5 |
| 20260906180203 | 81 | 120 | 0.0 | 0.0 | 0.00 | 0.00 | 0.00 | 55 | 1019.6 |
| 20260906175703 | 81 | 120 | 0.0 | 0.0 | 0.00 | 0.00 | 0.00 | 54 | 1019.7 |
| 20260906175204 | 81 | 120 | 0.0 | 0.0 | 0.00 | 0.00 | 0.00 | 57 | 1019.7 |
| 20260906174203 | 82 | 120 | 0.0 | 0.0 | 0.00 | 0.00 | 0.00 | 55 | 1019.7 |
| 20260906173704 | 82 | 120 | 0.0 | 0.0 | 0.00 | 0.00 | 0.00 | 54 | 1019.8 |
| 20260906172703 | 81 | 120 | 0.0 | 0.0 | 0.00 | 0.00 | 0.00 | 56 | 1019.8 |
| 20260906172203 | 81 | 120 | 0.0 | 0.0 | 0.00 | 0.00 | 0.00 | 58 | 1019.9 |
| 20260906171704 | 81 | 120 | 0.0 | 0.0 | 0.00 | 0.00 | 0.00 | 57 | 1020.0 |
| 20260906170704 | 81 | 120 | 0.0 | 0.0 | 0.00 | 0.00 | 0.00 | 58 | 1020.1 |
| 20260906170204 | 81 | 120 | 0.0 | 0.0 | 0.00 | 0.00 | 0.00 | 58 | 1020.0 |
| 20260906165204 | 81 | 120 | 0.0 | 0.0 | 0.00 | 0.00 | 0.00 | 59 | 1020.1 |
| 20260906164703 | 80 | 120 | 0.0 | 0.0 | 0.00 | 0.00 | 0.00 | 61 | 1020.1 |
| 20260906164204 | 80 | 120 | 0.0 | 0.0 | 0.00 | 0.00 | 0.00 | 61 | 1020.1 |
| 20260906163703 | 80 | 120 | 0.0 | 0.0 | 0.00 | 0.00 | 0.00 | 61 | 1020.1 |
| 20260906163204 | 80 | 120 | 0.0 | 0.0 | 0.00 | 0.00 | 0.00 | 62 | 1020.0 |
| 20260906162703 | 80 | 120 | 0.0 | 0.0 | 0.00 | 0.00 | 0.00 | 61 | 1020.1 |
| 20260906161704 | 79 | 120 | 0.0 | 0.0 | 0.00 | 0.00 | 0.00 | 64 | 1019.9 |
| 20260906161203 | 79 | 120 | 0.0 | 0.0 | 0.00 | 0.00 | 0.00 | 63 | 1019.9 |
| 20260906160704 | 79 | 120 | 0.0 | 0.0 | 0.00 | 0.00 | 0.00 | 63 | 1019.9 |
| 20260906155704 | 79 | 120 | 0.0 | 0.0 | 0.00 | 0.00 | 0.00 | 64 | 1019.7 |
| 20260906154703 | 79 | 120 | 0.0 | 0.0 | 0.00 | 0.00 | 0.00 | 64 | 1019.7 |
| 20260906154204 | 79 | 120 | 0.0 | 0.0 | 0.00 | 0.00 | 0.00 | 64 | 1019.7 |
| 20260906153704 | 79 | 120 | 0.0 | 0.0 | 0.00 | 0.00 | 0.00 | 65 | 1019.7 |
| 20260906153203 | 78 | 120 | 0.0 | 0.0 | 0.00 | 0.00 | 0.00 | 67 | 1019.6 |
| 20260906152704 | 78 | 120 | 0.0 | 0.0 | 0.00 | 0.00 | 0.00 | 67 | 1019.7 |
| 20260906152203 | 77 | 120 | 0.0 | 0.0 | 0.00 | 0.00 | 0.00 | 69 | 1019.7 |
| 20260906151705 | 77 | 120 | 0.0 | 0.0 | 0.00 | 0.00 | 0.00 | 69 | 1019.7 |
| 20260906150704 | 76 | 120 | 0.0 | 0.0 | 0.00 | 0.00 | 0.00 | 74 | 1019.6 |
| 20260906150204 | 76 | 120 | 0.0 | 0.0 | 0.00 | 0.00 | 0.00 | 75 | 1019.6 |
| 20260906145704 | 75 | 120 | 0.0 | 0.0 | 0.00 | 0.00 | 0.00 | 74 | 1019.6 |
| 20260906145204 | 75 | 120 | 0.0 | 0.0 | 0.00 | 0.00 | 0.00 | 75 | 1019.6 |
| 20260906144703 | 75 | 120 | 0.0 | 0.0 | 0.00 | 0.00 | 0.00 | 80 | 1019.5 |
| 20260906143703 | 74 | 120 | 0.0 | 0.0 | 0.00 | 0.00 | 0.00 | 80 | 1019.5 |
| 20260906143204 | 74 | 120 | 0.0 | 0.0 | 0.00 | 0.00 | 0.00 | 79 | 1019.5 |
| 20260906142704 | 73 | 120 | 0.0 | 0.0 | 0.00 | 0.00 | 0.00 | 82 | 1019.6 |
| 20260906142203 | 73 | 120 | 0.0 | 0.0 | 0.00 | 0.00 | 0.00 | 83 | 1019.5 |
| 20260906141704 | 73 | 120 | 0.0 | 0.0 | 0.00 | 0.00 | 0.00 | 83 | 1019.5 |
| 20260906140203 | 73 | 120 | 0.0 | 0.0 | 0.00 | 0.00 | 0.00 | 83 | 1019.8 |
| 20260906135704 | 72 | 120 | 0.0 | 0.0 | 0.00 | 0.00 | 0.00 | 86 | 1019.8 |
| 20260906135204 | 72 | 120 | 0.0 | 0.0 | 0.00 | 0.00 | 0.00 | 86 | 1019.8 |
| 20260906134704 | 72 | 120 | 0.0 | 0.0 | 0.00 | 0.00 | 0.00 | 87 | 1019.7 |
| 20260906134203 | 72 | 120 | 0.0 | 0.0 | 0.00 | 0.00 | 0.00 | 85 | 1019.6 |
| 20260906133204 | 72 | 120 | 0.0 | 0.0 | 0.00 | 0.00 | 0.00 | 86 | 1019.3 |
| 20260906132703 | 71 | 120 | 0.0 | 0.0 | 0.00 | 0.00 | 0.00 | 86 | 1019.1 |
| 20260906132204 | 71 | 120 | 0.0 | 0.0 | 0.00 | 0.00 | 0.00 | 88 | 1019.1 |
| 20260906131704 | 71 | 120 | 0.0 | 0.0 | 0.00 | 0.00 | 0.00 | 89 | 1019.2 |
| 20260906131205 | 71 | 120 | 0.0 | 0.0 | 0.00 | 0.00 | 0.00 | 90 | 1019.2 |
| 20260906130703 | 70 | 120 | 0.0 | 0.0 | 0.00 | 0.00 | 0.00 | 91 | 1019.2 |
| 20260906130204 | 70 | 120 | 0.0 | 0.0 | 0.00 | 0.00 | 0.00 | 92 | 1019.2 |
| 20260906125203 | 70 | 120 | 0.0 | 0.0 | 0.00 | 0.00 | 0.00 | 93 | 1019.2 |
| 20260906124704 | 69 | 120 | 0.0 | 0.0 | 0.00 | 0.00 | 0.00 | 94 | 1019.2 |
| 20260906123703 | 69 | 120 | 0.0 | 0.0 | 0.00 | 0.00 | 0.00 | 94 | 1018.9 |
| 20260906122704 | 68 | 120 | 0.0 | 0.0 | 0.00 | 0.00 | 0.00 | 95 | 1018.8 |
| 20260906122204 | 68 | 120 | 0.0 | 0.0 | 0.00 | 0.00 | 0.00 | 95 | 1018.8 |
| 20260906121704 | 68 | 120 | 0.0 | 0.0 | 0.00 | 0.00 | 0.00 | 95 | 1018.7 |
| 20260906121204 | 68 | 120 | 0.0 | 0.0 | 0.00 | 0.00 | 0.00 | 94 | 1018.7 |
| 20260906120703 | 68 | 120 | 0.0 | 0.0 | 0.00 | 0.00 | 0.00 | 95 | 1018.8 |
| 20260906120203 | 68 | 120 | 0.0 | 0.0 | 0.00 | 0.00 | 0.00 | 95 | 1018.7 |
| 20260906115704 | 68 | 120 | 0.0 | 0.0 | 0.00 | 0.00 | 0.00 | 95 | 1018.5 |
| 20260906115204 | 67 | 120 | 0.0 | 0.0 | 0.00 | 0.00 | 0.00 | 95 | 1018.4 |
| 20260906114704 | 67 | 120 | 0.0 | 0.0 | 0.00 | 0.00 | 0.00 | 95 | 1018.4 |
| 20260906114203 | 67 | 120 | 0.0 | 0.0 | 0.00 | 0.00 | 0.00 | 95 | 1018.2 |
| 20260906113704 | 67 | 120 | 0.0 | 0.0 | 0.00 | 0.00 | 0.00 | 95 | 1018.2 |
| 20260906113203 | 67 | 120 | 0.0 | 0.0 | 0.00 | 0.00 | 0.00 | 95 | 1018.0 |
| 20260906112704 | 67 | 120 | 0.0 | 0.0 | 0.00 | 0.00 | 0.00 | 94 | 1017.9 |
| 20260906112204 | 67 | 120 | 0.0 | 0.0 | 0.00 | 0.00 | 0.00 | 94 | 1017.9 |
| 20260906111703 | 67 | 120 | 0.0 | 0.0 | 0.00 | 0.00 | 0.00 | 94 | 1017.9 |
| 20260906110704 | 67 | 120 | 0.0 | 0.0 | 0.00 | 0.00 | 0.00 | 94 | 1018.1 |
| 20260906110204 | 67 | 120 | 0.0 | 0.0 | 0.00 | 0.00 | 0.00 | 94 | 1018.0 |
| 20260906105703 | 67 | 120 | 0.0 | 0.0 | 0.00 | 0.00 | 0.00 | 94 | 1017.9 |
| 20260906105204 | 68 | 120 | 0.0 | 0.0 | 0.00 | 0.00 | 0.00 | 94 | 1017.9 |
| 20260906104203 | 68 | 120 | 0.0 | 0.0 | 0.00 | 0.00 | 0.00 | 94 | 1017.9 |
| 20260906103704 | 68 | 120 | 0.0 | 0.0 | 0.00 | 0.00 | 0.00 | 94 | 1017.8 |
| 20260906103203 | 68 | 120 | 0.0 | 0.0 | 0.00 | 0.00 | 0.00 | 94 | 1017.9 |
| 20260906102703 | 68 | 120 | 0.0 | 0.0 | 0.00 | 0.00 | 0.00 | 94 | 1017.8 |
| 20260906102204 | 68 | 120 | 0.0 | 0.0 | 0.00 | 0.00 | 0.00 | 94 | 1017.7 |
| 20260906101703 | 68 | 120 | 0.0 | 0.0 | 0.00 | 0.00 | 0.00 | 94 | 1017.6 |
| 20260906101204 | 68 | 120 | 0.0 | 0.0 | 0.00 | 0.00 | 0.00 | 94 | 1017.6 |
| 20260906100703 | 68 | 120 | 0.0 | 0.0 | 0.00 | 0.00 | 0.00 | 94 | 1017.5 |
| 20260906100203 | 68 | 120 | 0.0 | 0.0 | 0.00 | 0.00 | 0.00 | 94 | 1017.5 |
| 20260906095703 | 68 | 120 | 0.0 | 0.0 | 0.00 | 0.00 | 0.00 | 94 | 1017.5 |
| 20260906095203 | 68 | 120 | 0.0 | 0.0 | 0.00 | 0.00 | 0.00 | 94 | 1017.5 |
| 20260906094704 | 68 | 120 | 0.0 | 0.0 | 0.00 | 0.00 | 0.00 | 94 | 1017.5 |
| 20260906094203 | 68 | 120 | 0.0 | 0.0 | 0.00 | 0.00 | 0.00 | 94 | 1017.5 |
| 20260906093704 | 68 | 120 | 0.0 | 0.0 | 0.00 | 0.00 | 0.00 | 94 | 1017.5 |
| 20260906093203 | 68 | 120 | 0.0 | 0.0 | 0.00 | 0.00 | 0.00 | 94 | 1017.5 |
| 20260906092704 | 68 | 120 | 0.0 | 0.0 | 0.00 | 0.00 | 0.00 | 94 | 1017.5 |
| 20260906092203 | 68 | 120 | 0.0 | 0.0 | 0.00 | 0.00 | 0.00 | 94 | 1017.4 |
| 20260906091203 | 68 | 120 | 0.0 | 0.0 | 0.00 | 0.00 | 0.00 | 94 | 1017.3 |
| 20260906090703 | 68 | 120 | 0.0 | 0.0 | 0.00 | 0.00 | 0.00 | 94 | 1017.4 |
| 20260906090204 | 68 | 120 | 0.0 | 0.0 | 0.00 | 0.00 | 0.00 | 94 | 1017.4 |
| 20260906085703 | 68 | 120 | 0.0 | 0.0 | 0.00 | 0.00 | 0.00 | 94 | 1017.4 |
| 20260906084703 | 68 | 120 | 0.0 | 0.0 | 0.00 | 0.00 | 0.00 | 94 | 1017.3 |
| 20260906083703 | 68 | 120 | 0.0 | 0.0 | 0.00 | 0.00 | 0.00 | 94 | 1017.4 |
| 20260906082703 | 68 | 120 | 0.0 | 0.0 | 0.00 | 0.00 | 0.00 | 93 | 1017.3 |
| 20260906082203 | 68 | 120 | 0.0 | 0.0 | 0.00 | 0.00 | 0.00 | 93 | 1017.3 |
| 20260906081203 | 68 | 120 | 0.0 | 0.0 | 0.00 | 0.00 | 0.00 | 93 | 1017.3 |
| 20260906075703 | 68 | 120 | 0.0 | 0.0 | 0.00 | 0.00 | 0.00 | 93 | 1017.2 |
| 20260906075203 | 68 | 120 | 0.0 | 0.0 | 0.00 | 0.00 | 0.00 | 93 | 1017.2 |
| 20260906074203 | 68 | 120 | 0.0 | 0.0 | 0.00 | 0.00 | 0.00 | 93 | 1017.3 |
| 20260906073703 | 68 | 120 | 0.0 | 0.0 | 0.00 | 0.00 | 0.00 | 93 | 1017.4 |
| 20260906073203 | 68 | 120 | 0.0 | 0.0 | 0.00 | 0.00 | 0.00 | 93 | 1017.4 |
| 20260906072704 | 68 | 120 | 0.0 | 0.0 | 0.00 | 0.00 | 0.00 | 92 | 1017.4 |
| 20260906072203 | 68 | 120 | 0.0 | 0.0 | 0.00 | 0.00 | 0.00 | 93 | 1017.4 |
| 20260906071703 | 68 | 120 | 0.0 | 0.0 | 0.00 | 0.00 | 0.00 | 93 | 1017.3 |
| 20260906071203 | 68 | 120 | 0.0 | 0.0 | 0.00 | 0.00 | 0.00 | 93 | 1017.4 |
| 20260906070203 | 69 | 120 | 0.0 | 0.0 | 0.00 | 0.00 | 0.00 | 92 | 1017.3 |
| 20260906065703 | 69 | 120 | 0.0 | 0.0 | 0.00 | 0.00 | 0.00 | 92 | 1017.4 |
| 20260906065204 | 69 | 120 | 0.0 | 0.0 | 0.00 | 0.00 | 0.00 | 92 | 1017.5 |
| 20260906064703 | 69 | 120 | 0.0 | 0.0 | 0.00 | 0.00 | 0.00 | 92 | 1017.4 |
| 20260906064203 | 69 | 120 | 0.0 | 0.0 | 0.00 | 0.00 | 0.00 | 92 | 1017.5 |
| 20260906063704 | 69 | 120 | 0.0 | 0.0 | 0.00 | 0.00 | 0.00 | 92 | 1017.4 |
| 20260906063203 | 69 | 120 | 0.0 | 0.0 | 0.00 | 0.00 | 0.00 | 92 | 1017.4 |
| 20260906062703 | 69 | 120 | 0.0 | 0.0 | 0.00 | 0.00 | 0.00 | 92 | 1017.5 |
| 20260906062203 | 70 | 120 | 0.0 | 0.0 | 0.00 | 0.00 | 0.00 | 92 | 1017.5 |
| 20260906061704 | 70 | 120 | 0.0 | 0.0 | 0.00 | 0.00 | 0.00 | 92 | 1017.4 |
| 20260906060704 | 70 | 120 | 0.0 | 0.0 | 0.00 | 0.00 | 0.00 | 92 | 1017.4 |
| 20260906055704 | 70 | 120 | 0.0 | 0.0 | 0.00 | 0.00 | 0.00 | 91 | 1017.5 |
| 20260906054704 | 71 | 120 | 0.0 | 0.0 | 0.00 | 0.00 | 0.00 | 91 | 1017.5 |
| 20260906054203 | 71 | 120 | 0.0 | 0.0 | 0.00 | 0.00 | 0.00 | 91 | 1017.5 |
| 20260906053703 | 71 | 120 | 0.0 | 0.0 | 0.00 | 0.00 | 0.00 | 91 | 1017.5 |
| 20260906053204 | 71 | 120 | 0.0 | 0.0 | 0.00 | 0.00 | 0.00 | 91 | 1017.4 |
| 20260906052703 | 71 | 120 | 0.0 | 0.0 | 0.00 | 0.00 | 0.00 | 91 | 1017.4 |
| 20260906052203 | 71 | 120 | 0.0 | 0.0 | 0.00 | 0.00 | 0.00 | 91 | 1017.2 |
| 20260906051204 | 71 | 120 | 0.0 | 0.0 | 0.00 | 0.00 | 0.00 | 91 | 1017.1 |
| 20260906050703 | 71 | 120 | 0.0 | 0.0 | 0.00 | 0.00 | 0.00 | 91 | 1017.2 |
| 20260906050204 | 71 | 120 | 0.0 | 0.0 | 0.00 | 0.00 | 0.00 | 91 | 1017.1 |
| 20260906045704 | 71 | 120 | 0.0 | 0.0 | 0.00 | 0.00 | 0.00 | 91 | 1017.1 |
| 20260906045203 | 71 | 120 | 0.0 | 0.0 | 0.00 | 0.00 | 0.00 | 91 | 1017.1 |
| 20260906044704 | 71 | 120 | 0.0 | 0.0 | 0.00 | 0.00 | 0.00 | 91 | 1017.0 |
| 20260906044204 | 71 | 120 | 0.0 | 0.0 | 0.00 | 0.00 | 0.00 | 90 | 1016.9 |
| 20260906043703 | 71 | 120 | 0.0 | 0.0 | 0.00 | 0.00 | 0.00 | 90 | 1016.8 |
| 20260906043204 | 71 | 120 | 0.0 | 0.0 | 0.00 | 0.00 | 0.00 | 90 | 1016.8 |
| 20260906042703 | 71 | 120 | 0.0 | 0.0 | 0.00 | 0.00 | 0.00 | 90 | 1016.7 |
| 20260906041704 | 71 | 120 | 0.0 | 0.0 | 0.00 | 0.00 | 0.00 | 90 | 1016.6 |
| 20260906041204 | 71 | 120 | 0.0 | 0.0 | 0.00 | 0.00 | 0.00 | 90 | 1016.5 |
| 20260906040704 | 71 | 120 | 0.0 | 0.0 | 0.00 | 0.00 | 0.00 | 90 | 1016.5 |
| 20260906040203 | 71 | 120 | 0.0 | 0.0 | 0.00 | 0.00 | 0.00 | 90 | 1016.4 |
| 20260906035703 | 71 | 120 | 0.0 | 0.0 | 0.00 | 0.00 | 0.00 | 90 | 1016.4 |
| 20260906035204 | 71 | 120 | 0.0 | 0.0 | 0.00 | 0.00 | 0.00 | 90 | 1016.5 |
| 20260906034703 | 71 | 120 | 0.0 | 0.0 | 0.00 | 0.00 | 0.00 | 90 | 1016.4 |
| 20260906034204 | 71 | 120 | 0.0 | 0.0 | 0.00 | 0.00 | 0.00 | 90 | 1016.3 |
| 20260906033704 | 71 | 120 | 0.0 | 0.0 | 0.00 | 0.00 | 0.00 | 90 | 1016.3 |
| 20260906033203 | 71 | 120 | 0.0 | 0.0 | 0.00 | 0.00 | 0.00 | 90 | 1016.3 |
| 20260906032703 | 71 | 120 | 0.0 | 0.0 | 0.00 | 0.00 | 0.00 | 90 | 1016.3 |
| 20260906032203 | 71 | 120 | 0.0 | 0.0 | 0.00 | 0.00 | 0.00 | 89 | 1016.3 |
| 20260906031704 | 71 | 120 | 0.0 | 0.0 | 0.00 | 0.00 | 0.00 | 89 | 1016.2 |
| 20260906031203 | 71 | 120 | 0.0 | 0.0 | 0.00 | 0.00 | 0.00 | 89 | 1016.2 |
| 20260906030704 | 71 | 120 | 0.0 | 0.0 | 0.00 | 0.00 | 0.00 | 88 | 1016.2 |
| 20260906025703 | 71 | 120 | 0.0 | 0.0 | 0.00 | 0.00 | 0.00 | 88 | 1016.3 |
| 20260906025204 | 72 | 120 | 0.0 | 0.0 | 0.00 | 0.01 | 0.00 | 87 | 1016.2 |
| 20260906024704 | 72 | 120 | 0.0 | 0.0 | 0.00 | 0.08 | 0.00 | 87 | 1016.2 |
| 20260906024203 | 72 | 120 | 0.0 | 0.0 | 0.00 | 0.10 | 0.00 | 87 | 1016.2 |
| 20260906023704 | 72 | 120 | 0.0 | 0.0 | 0.00 | 0.10 | 0.00 | 86 | 1016.2 |
| 20260906023203 | 72 | 120 | 0.0 | 0.0 | 0.00 | 0.10 | 0.00 | 86 | 1016.1 |
| 20260906022203 | 72 | 120 | 0.0 | 0.0 | 0.00 | 0.10 | 0.00 | 86 | 1016.1 |
| 20260906021703 | 72 | 120 | 0.0 | 0.0 | 0.00 | 0.10 | 0.00 | 86 | 1016.1 |
| 20260906020704 | 73 | 120 | 0.0 | 0.0 | 0.00 | 0.10 | 0.00 | 86 | 1016.1 |
| 20260906020204 | 73 | 120 | 0.0 | 0.0 | 0.00 | 0.10 | 0.00 | 86 | 1016.1 |
| 20260906015704 | 73 | 120 | 0.0 | 0.0 | 0.00 | 0.10 | 0.00 | 85 | 1016.2 |
| 20260906015203 | 73 | 120 | 0.0 | 0.0 | 0.00 | 0.10 | 0.00 | 85 | 1016.2 |
| 20260906014704 | 73 | 120 | 0.0 | 0.0 | 0.00 | 0.10 | 0.00 | 86 | 1016.1 |
| 20260906014203 | 72 | 120 | 0.0 | 0.0 | 0.00 | 0.10 | 0.00 | 86 | 1016.2 |
| 20260906013204 | 73 | 120 | 0.0 | 0.0 | 0.00 | 0.10 | 0.00 | 86 | 1016.2 |
| 20260906012703 | 73 | 120 | 0.0 | 0.0 | 0.00 | 0.10 | 0.00 | 86 | 1016.2 |
| 20260906011704 | 73 | 120 | 0.0 | 0.0 | 0.00 | 0.10 | 0.00 | 86 | 1016.4 |
| 20260906011204 | 73 | 120 | 0.0 | 0.0 | 0.00 | 0.10 | 0.00 | 86 | 1016.3 |
| 20260906010703 | 73 | 120 | 0.0 | 0.0 | 0.00 | 0.10 | 0.00 | 86 | 1016.2 |
| 20260906010204 | 73 | 120 | 0.0 | 0.0 | 0.00 | 0.10 | 0.00 | 86 | 1016.2 |
| 20260906005705 | 73 | 120 | 0.0 | 0.0 | 0.00 | 0.10 | 0.00 | 85 | 1016.1 |
| 20260906005205 | 73 | 120 | 0.0 | 0.0 | 0.00 | 0.10 | 0.00 | 85 | 1016.0 |
| 20260906004703 | 73 | 120 | 0.0 | 0.0 | 0.00 | 0.10 | 0.00 | 85 | 1015.9 |
| 20260906004203 | 73 | 120 | 0.0 | 0.0 | 0.00 | 0.10 | 0.00 | 85 | 1015.8 |
| 20260906002704 | 73 | 120 | 0.0 | 0.0 | 0.00 | 0.10 | 0.00 | 84 | 1015.8 |
| 20260906002203 | 73 | 120 | 0.0 | 0.0 | 0.00 | 0.10 | 0.00 | 84 | 1015.8 |
| 20260906001703 | 73 | 120 | 0.0 | 0.0 | 0.00 | 0.10 | 0.00 | 84 | 1015.8 |
| 20260906000704 | 73 | 120 | 0.0 | 0.0 | 0.00 | 0.10 | 0.00 | 84 | 1015.7 |
| 20260906000204 | 73 | 120 | 0.0 | 0.0 | 0.00 | 0.10 | 0.00 | 84 | 1015.7 |
| 20260905235704 | 74 | 120 | 0.0 | 0.0 | 0.00 | 0.10 | 0.00 | 84 | 1015.6 |
| 20260905234704 | 74 | 120 | 0.0 | 0.0 | 0.00 | 0.10 | 0.00 | 84 | 1015.7 |
| 20260905233704 | 74 | 120 | 0.0 | 0.0 | 0.00 | 0.10 | 0.00 | 82 | 1015.7 |
| 20260905233203 | 74 | 120 | 0.0 | 0.0 | 0.00 | 0.10 | 0.00 | 82 | 1015.8 |
| 20260905232703 | 74 | 120 | 0.0 | 0.0 | 0.00 | 0.10 | 0.00 | 82 | 1015.8 |
| 20260905232203 | 75 | 120 | 0.0 | 0.0 | 0.00 | 0.10 | 0.00 | 81 | 1015.7 |
| 20260905231704 | 75 | 120 | 0.0 | 0.0 | 0.00 | 0.10 | 0.00 | 80 | 1015.6 |
| 20260905231204 | 75 | 120 | 0.0 | 0.0 | 0.00 | 0.10 | 0.00 | 80 | 1015.5 |
| 20260905230704 | 76 | 120 | 0.0 | 0.0 | 0.00 | 0.10 | 0.00 | 79 | 1015.5 |
| 20260905230204 | 76 | 120 | 0.0 | 0.0 | 0.00 | 0.10 | 0.00 | 78 | 1015.5 |
| 20260905225704 | 77 | 120 | 0.0 | 0.0 | 0.00 | 0.10 | 0.00 | 77 | 1015.4 |
| 20260905225203 | 77 | 120 | 0.0 | 0.0 | 0.00 | 0.10 | 0.00 | 78 | 1015.4 |
| 20260905224704 | 77 | 120 | 0.0 | 0.0 | 0.00 | 0.10 | 0.00 | 78 | 1015.3 |
| 20260905224204 | 78 | 120 | 0.0 | 0.0 | 0.00 | 0.10 | 0.00 | 76 | 1015.2 |
| 20260905223704 | 78 | 120 | 0.0 | 0.0 | 0.00 | 0.10 | 0.00 | 76 | 1015.2 |
| 20260905223203 | 78 | 120 | 0.0 | 0.0 | 0.00 | 0.10 | 0.00 | 76 | 1015.1 |
| 20260905222703 | 78 | 120 | 0.0 | 0.0 | 0.00 | 0.10 | 0.00 | 75 | 1015.1 |
| 20260905222204 | 79 | 120 | 0.0 | 0.0 | 0.00 | 0.10 | 0.00 | 73 | 1015.1 |
| 20260905221703 | 79 | 120 | 0.0 | 0.0 | 0.00 | 0.10 | 0.00 | 73 | 1015.1 |
| 20260905215704 | 80 | 120 | 0.0 | 0.0 | 0.00 | 0.10 | 0.00 | 73 | 1015.0 |
| 20260905215204 | 80 | 120 | 0.0 | 0.0 | 0.00 | 0.10 | 0.00 | 71 | 1014.9 |
| 20260905214704 | 81 | 120 | 0.0 | 0.0 | 0.00 | 0.10 | 0.00 | 70 | 1014.9 |
| 20260905214203 | 81 | 120 | 0.0 | 0.0 | 0.00 | 0.10 | 0.00 | 71 | 1014.9 |
| 20260905213704 | 81 | 120 | 0.0 | 0.0 | 0.00 | 0.10 | 0.00 | 70 | 1014.8 |
| 20260905213204 | 81 | 120 | 0.0 | 0.0 | 0.00 | 0.10 | 0.00 | 72 | 1014.8 |
| 20260905212703 | 81 | 120 | 0.0 | 0.0 | 0.00 | 0.10 | 0.00 | 71 | 1014.7 |
| 20260905212204 | 81 | 120 | 0.0 | 0.0 | 0.00 | 0.10 | 0.00 | 71 | 1014.6 |
| 20260905211704 | 82 | 120 | 0.0 | 0.0 | 0.00 | 0.10 | 0.00 | 69 | 1014.5 |
| 20260905211203 | 83 | 120 | 0.0 | 0.0 | 0.00 | 0.10 | 0.00 | 68 | 1014.6 |
| 20260905210703 | 83 | 120 | 0.0 | 0.0 | 0.00 | 0.10 | 0.00 | 66 | 1014.5 |
| 20260905210204 | 83 | 120 | 0.0 | 0.0 | 0.00 | 0.10 | 0.00 | 66 | 1014.6 |
| 20260905205704 | 83 | 120 | 0.0 | 0.0 | 0.00 | 0.10 | 0.00 | 66 | 1014.5 |
| 20260905204704 | 84 | 120 | 0.0 | 0.0 | 0.00 | 0.10 | 0.00 | 66 | 1014.6 |
| 20260905204203 | 83 | 120 | 0.0 | 0.0 | 0.00 | 0.10 | 0.00 | 67 | 1014.5 |
| 20260905203703 | 83 | 120 | 0.0 | 0.0 | 0.00 | 0.10 | 0.00 | 66 | 1014.7 |
| 20260905203204 | 83 | 120 | 0.0 | 0.0 | 0.00 | 0.10 | 0.00 | 67 | 1014.7 |
| 20260905202204 | 83 | 120 | 0.0 | 0.0 | 0.00 | 0.10 | 0.00 | 66 | 1014.5 |
| 20260905201703 | 83 | 120 | 0.0 | 0.0 | 0.00 | 0.10 | 0.00 | 67 | 1014.5 |
| 20260905201203 | 83 | 120 | 0.0 | 0.0 | 0.00 | 0.10 | 0.00 | 67 | 1014.6 |
| 20260905200704 | 83 | 120 | 0.0 | 0.0 | 0.00 | 0.10 | 0.00 | 67 | 1014.7 |
| 20260905200203 | 82 | 120 | 0.0 | 0.0 | 0.00 | 0.10 | 0.00 | 68 | 1014.6 |
| 20260905195703 | 82 | 120 | 0.0 | 0.0 | 0.00 | 0.10 | 0.00 | 69 | 1014.7 |
| 20260905195204 | 83 | 120 | 0.0 | 0.0 | 0.00 | 0.10 | 0.00 | 70 | 1014.7 |
| 20260905194704 | 82 | 120 | 0.0 | 0.0 | 0.00 | 0.10 | 0.00 | 74 | 1014.7 |
| 20260905194204 | 81 | 120 | 0.0 | 0.0 | 0.00 | 0.10 | 0.00 | 75 | 1014.9 |
| 20260905193704 | 81 | 120 | 0.0 | 0.0 | 0.00 | 0.10 | 0.00 | 74 | 1015.0 |
| 20260905193203 | 81 | 120 | 0.0 | 0.0 | 0.00 | 0.10 | 0.00 | 75 | 1015.0 |
| 20260905192204 | 80 | 120 | 0.0 | 0.0 | 0.00 | 0.10 | 0.00 | 75 | 1015.1 |
| 20260905191704 | 80 | 120 | 0.0 | 0.0 | 0.00 | 0.10 | 0.00 | 77 | 1015.1 |
| 20260905191203 | 79 | 120 | 0.0 | 0.0 | 0.00 | 0.10 | 0.00 | 77 | 1015.1 |
| 20260905190703 | 79 | 120 | 0.0 | 0.0 | 0.00 | 0.10 | 0.00 | 77 | 1015.2 |
| 20260905190204 | 78 | 120 | 0.0 | 0.0 | 0.00 | 0.10 | 0.00 | 78 | 1015.2 |
| 20260905185704 | 78 | 120 | 0.0 | 0.0 | 0.00 | 0.10 | 0.00 | 79 | 1015.2 |
| 20260905184704 | 78 | 120 | 0.0 | 0.0 | 0.00 | 0.10 | 0.00 | 81 | 1015.3 |
| 20260905183704 | 78 | 120 | 0.0 | 0.0 | 0.00 | 0.10 | 0.00 | 81 | 1015.5 |
| 20260905183204 | 78 | 120 | 0.0 | 0.0 | 0.00 | 0.10 | 0.00 | 80 | 1015.4 |
| 20260905182704 | 78 | 120 | 0.0 | 0.0 | 0.00 | 0.10 | 0.00 | 80 | 1015.3 |
| 20260905181703 | 78 | 120 | 0.0 | 0.0 | 0.00 | 0.10 | 0.00 | 80 | 1015.4 |